GW6728 Weather Reports


Display with metric or nautical units.
time (UTC)temp
F
wind
direction
speed
MPH
gust
MPH
rain 1hr
in
rain 24hr
in
rain mn
in
humidity
%
barometer
mb
20260503212012 64 304 4.0 6.0 0.00 0.00 0.00 34 1013.8
20260503211023 63 263 7.0 11.0 0.00 0.00 0.00 34 1013.9
20260503210512 64 275 6.0 8.0 0.00 0.00 0.00 34 1013.9
20260503210012 64 317 3.0 7.0 0.00 0.00 0.00 32 1013.8
20260503205512 64 285 4.0 9.0 0.00 0.00 0.00 33 1013.9
20260503205012 63 312 3.0 7.0 0.00 0.00 0.00 33 1013.9
20260503204511 62 299 6.0 11.0 0.00 0.00 0.00 32 1014.0
20260503204012 62 252 6.0 9.0 0.00 0.00 0.00 33 1013.8
20260503203511 62 295 6.0 9.0 0.00 0.00 0.00 34 1013.9
20260503203012 62 353 2.0 4.0 0.00 0.00 0.00 34 1013.8
20260503202511 63 311 5.0 8.0 0.00 0.00 0.00 33 1014.0
20260503202012 64 308 4.0 6.0 0.00 0.00 0.00 33 1014.1
20260503201512 65 256 8.0 15.0 0.00 0.00 0.00 33 1014.0
20260503201012 64 293 2.0 4.0 0.00 0.00 0.00 34 1014.1
20260503200511 64 278 5.0 9.0 0.00 0.00 0.00 33 1014.2
20260503200013 64 342 6.0 10.0 0.00 0.00 0.00 32 1014.2
20260503195513 65 301 7.0 11.0 0.00 0.00 0.00 31 1014.3
20260503195011 64 291 3.0 5.0 0.00 0.00 0.00 34 1014.2
20260503194511 64 291 4.0 9.0 0.00 0.00 0.00 34 1014.4
20260503194011 64 348 2.0 6.0 0.00 0.00 0.00 33 1014.4
20260503193511 63 330 2.0 4.0 0.00 0.00 0.00 33 1014.6
20260503193011 64 312 4.0 9.0 0.00 0.00 0.00 32 1014.7
20260503192513 63 271 3.0 6.0 0.00 0.00 0.00 34 1014.5
20260503192012 64 303 5.0 7.0 0.00 0.00 0.00 32 1014.6
20260503191513 64 322 6.0 9.0 0.00 0.00 0.00 32 1014.6
20260503190523 64 318 3.0 8.0 0.00 0.00 0.00 33 1014.7
20260503190013 63 74 4.0 12.0 0.00 0.00 0.00 32 1014.8
20260503185512 61 302 3.0 6.0 0.00 0.00 0.00 37 1014.9
20260503185012 61 286 8.0 11.0 0.00 0.00 0.00 35 1015.0
20260503184511 62 311 4.0 7.0 0.00 0.00 0.00 34 1015.0
20260503184012 63 344 3.0 7.0 0.00 0.00 0.00 32 1015.1
20260503183511 63 319 6.0 12.0 0.00 0.00 0.00 33 1015.1
20260503183013 63 314 4.0 6.0 0.00 0.00 0.00 33 1015.0
20260503182511 62 293 4.0 7.0 0.00 0.00 0.00 34 1015.0
20260503182012 62 18 3.0 5.0 0.00 0.00 0.00 33 1015.1
20260503181512 62 306 4.0 7.0 0.00 0.00 0.00 34 1015.2
20260503181012 60 322 4.0 6.0 0.00 0.00 0.00 35 1015.2
20260503180511 62 337 5.0 7.0 0.00 0.00 0.00 32 1015.3
20260503180012 61 320 3.0 6.0 0.00 0.00 0.00 34 1015.3
20260503175513 61 324 2.0 4.0 0.00 0.00 0.00 33 1015.3
20260503175011 61 21 4.0 11.0 0.00 0.00 0.00 35 1015.3
20260503174513 62 268 3.0 5.0 0.00 0.00 0.00 31 1015.6
20260503174012 61 337 4.0 6.0 0.00 0.00 0.00 33 1015.6
20260503173511 60 321 3.0 6.0 0.00 0.00 0.00 34 1015.5
20260503173011 60 280 7.0 12.0 0.00 0.00 0.00 35 1015.5
20260503172513 60 329 6.0 11.0 0.00 0.00 0.00 33 1015.6
20260503172013 60 317 3.0 6.0 0.00 0.00 0.00 34 1015.6
20260503171511 59 293 4.0 8.0 0.00 0.00 0.00 35 1015.6
20260503171011 59 287 3.0 4.0 0.00 0.00 0.00 38 1015.7
20260503170512 60 318 3.0 6.0 0.00 0.00 0.00 33 1015.6
20260503151014 53 13 4.0 9.0 0.00 0.00 0.00 42 1017.0
20260503150514 53 324 5.0 10.0 0.00 0.00 0.00 41 1017.0
20260503131013 48 341 5.0 10.0 0.00 0.00 0.00 52 1017.3
20260503130512 47 317 4.0 6.0 0.00 0.00 0.00 54 1017.3
20260503110511 37 300 2.0 4.0 0.00 0.00 0.00 69 1016.7
20260503090512 38 315 3.0 4.0 0.00 0.00 0.00 66 1015.7
20260503081511 38 299 2.0 4.0 0.00 0.00 0.00 66 1015.5
20260503081012 38 322 2.0 4.0 0.00 0.00 0.00 67 1015.5
20260503080511 38 297 1.0 3.0 0.00 0.00 0.00 69 1015.5
20260503072513 40 327 2.0 4.0 0.00 0.00 0.00 65 1015.1
20260503072012 40 352 2.0 5.0 0.00 0.00 0.00 64 1015.0
20260503071512 40 328 3.0 4.0 0.00 0.00 0.00 67 1015.0
20260503071011 40 311 0.0 2.0 0.00 0.00 0.00 65 1015.0
20260503070513 40 309 2.0 4.0 0.00 0.00 0.00 65 1014.9
20260503055011 42 287 2.0 3.0 0.00 0.00 0.00 66 1014.9
20260503054512 42 0 0.0 0.0 0.00 0.00 0.00 67 1015.0
20260503054014 42 280 2.0 2.0 0.00 0.00 0.00 65 1015.0
20260503053512 42 333 2.0 4.0 0.00 0.00 0.00 65 1015.0
20260503053013 42 313 3.0 6.0 0.00 0.00 0.00 68 1015.0
20260503052511 42 296 0.0 1.0 0.00 0.00 0.00 67 1015.0
20260503052012 42 349 1.0 2.0 0.00 0.00 0.00 65 1015.0
20260503051512 42 315 2.0 3.0 0.00 0.00 0.00 65 1015.0
20260503051012 42 308 2.0 3.0 0.00 0.00 0.00 64 1015.0
20260503050511 42 327 0.0 2.0 0.00 0.00 0.00 65 1014.9
20260503050011 42 306 2.0 3.0 0.00 0.00 0.00 64 1014.9
20260503045511 42 268 1.0 2.0 0.00 0.00 0.00 65 1014.9
20260503045012 43 312 1.0 4.0 0.00 0.00 0.00 64 1015.0
20260503044512 42 335 2.0 6.0 0.00 0.00 0.00 64 1015.0
20260503044013 43 329 1.0 2.0 0.00 0.00 0.00 64 1015.1
20260503043511 43 342 2.0 4.0 0.00 0.00 0.00 64 1015.1
20260503043012 43 24 1.0 3.0 0.00 0.00 0.00 64 1015.1
20260503042512 43 341 3.0 6.0 0.00 0.00 0.00 64 1015.1
20260503042011 43 323 2.0 4.0 0.00 0.00 0.00 65 1015.1
20260503041511 42 335 3.0 5.0 0.00 0.00 0.00 66 1015.2
20260503041012 42 271 1.0 3.0 0.00 0.00 0.00 67 1015.1
20260503040512 42 336 0.0 1.0 0.00 0.00 0.00 67 1015.2
20260503040011 42 323 2.0 2.0 0.00 0.00 0.00 66 1015.2
20260503035513 42 315 2.0 6.0 0.00 0.00 0.00 68 1015.2
20260503035012 42 308 1.0 2.0 0.00 0.00 0.00 67 1015.1
20260503034512 42 328 4.0 7.0 0.00 0.00 0.00 67 1015.1
20260503034013 42 336 2.0 6.0 0.00 0.00 0.00 68 1015.0
20260503033511 42 306 1.0 2.0 0.00 0.00 0.00 68 1015.1
20260503033012 42 321 1.0 2.0 0.00 0.00 0.00 68 1015.1
20260503032512 42 347 2.0 3.0 0.00 0.00 0.00 68 1015.1
20260503032013 41 346 0.0 2.0 0.00 0.00 0.00 69 1015.2
20260503031511 41 341 0.0 2.0 0.00 0.00 0.00 69 1015.3
20260503031012 42 351 0.0 1.0 0.00 0.00 0.00 69 1015.3
20260503030512 42 349 1.0 3.0 0.00 0.00 0.00 69 1015.3
20260503030012 42 327 1.0 3.0 0.00 0.00 0.00 67 1015.5
20260503025512 42 331 1.0 2.0 0.00 0.00 0.00 68 1015.5
20260503025012 42 271 1.0 2.0 0.00 0.00 0.00 69 1015.6
20260503024513 42 326 1.0 3.0 0.00 0.00 0.00 68 1015.5
20260503024013 42 263 0.0 2.0 0.00 0.00 0.00 68 1015.5
20260503023511 43 0 0.0 0.0 0.00 0.00 0.00 66 1015.6
20260503023013 43 267 1.0 3.0 0.00 0.00 0.00 67 1015.5
20260503022511 44 300 2.0 4.0 0.00 0.00 0.00 64 1015.5
20260503022014 44 0 0.0 0.0 0.00 0.00 0.00 64 1015.5
20260503021517 44 13 0.0 3.0 0.00 0.00 0.00 64 1015.5
20260503021011 44 343 3.0 6.0 0.00 0.00 0.00 62 1015.5
20260503020514 45 319 1.0 4.0 0.00 0.00 0.00 62 1015.3
20260503020013 45 351 2.0 6.0 0.00 0.00 0.00 61 1015.3
20260503015512 45 355 2.0 6.0 0.00 0.00 0.00 61 1015.3
20260503015012 45 344 4.0 6.0 0.00 0.00 0.00 60 1015.2
20260503014511 45 347 4.0 6.0 0.00 0.00 0.00 58 1015.2
20260503014012 46 321 3.0 6.0 0.00 0.00 0.00 58 1015.1
20260503013512 46 342 4.0 6.0 0.00 0.00 0.00 57 1015.0
20260503013011 46 342 3.0 6.0 0.00 0.00 0.00 57 1015.0
20260503012513 46 337 5.0 9.0 0.00 0.00 0.00 56 1014.9
20260503012011 46 344 3.0 5.0 0.00 0.00 0.00 56 1014.9
20260503011512 46 342 3.0 5.0 0.00 0.00 0.00 56 1014.7
20260503011012 46 338 2.0 3.0 0.00 0.00 0.00 56 1014.6
20260503010513 46 343 2.0 6.0 0.00 0.00 0.00 56 1014.6
20260503010013 46 320 2.0 3.0 0.00 0.00 0.00 57 1014.6
20260503005511 46 339 2.0 4.0 0.00 0.00 0.00 57 1014.6
20260503005013 46 316 2.0 4.0 0.00 0.00 0.00 58 1014.6
20260503004512 46 287 1.0 3.0 0.00 0.00 0.00 59 1014.5
20260503004011 46 337 2.0 4.0 0.00 0.00 0.00 58 1014.3
20260503003511 47 334 1.0 3.0 0.00 0.00 0.00 58 1014.2
20260503003011 47 307 3.0 6.0 0.00 0.00 0.00 58 1014.2
20260503002512 47 0 0.0 0.0 0.00 0.00 0.00 58 1014.1
20260503002011 47 341 2.0 6.0 0.00 0.00 0.00 57 1014.1
20260503001511 47 316 1.0 3.0 0.00 0.00 0.00 57 1014.0
20260503001012 47 332 1.0 2.0 0.00 0.00 0.00 56 1013.9
20260503000511 48 333 2.0 5.0 0.00 0.00 0.00 55 1013.9
20260503000011 48 320 1.0 2.0 0.00 0.00 0.00 54 1013.9
20260502235511 48 3 3.0 6.0 0.00 0.00 0.00 54 1013.8
20260502235011 49 325 3.0 6.0 0.00 0.00 0.00 53 1013.8
20260502234511 49 318 2.0 4.0 0.00 0.00 0.00 52 1013.8
20260502234013 49 4 2.0 3.0 0.00 0.00 0.00 54 1013.8
20260502233512 49 346 1.0 5.0 0.00 0.00 0.00 53 1013.7
20260502233011 50 331 2.0 4.0 0.00 0.00 0.00 52 1013.6
20260502232512 50 351 2.0 4.0 0.00 0.00 0.00 52 1013.6
20260502232011 50 342 3.0 5.0 0.00 0.00 0.00 51 1013.6
20260502231511 51 0 2.0 5.0 0.00 0.00 0.00 51 1013.5
20260502231011 51 308 3.0 7.0 0.00 0.00 0.00 51 1013.4
20260502230511 51 348 2.0 8.0 0.00 0.00 0.00 50 1013.4
20260502230013 51 2 3.0 5.0 0.00 0.00 0.00 50 1013.3
20260502225511 52 333 2.0 5.0 0.00 0.00 0.00 48 1013.3
20260502225012 52 339 3.0 8.0 0.00 0.00 0.00 48 1013.2
20260502224511 53 352 1.0 6.0 0.00 0.00 0.00 47 1013.2
20260502224012 53 341 2.0 5.0 0.00 0.00 0.00 46 1013.1
20260502223511 53 313 2.0 4.0 0.00 0.00 0.00 45 1013.1
20260502223011 53 349 2.0 4.0 0.00 0.00 0.00 45 1013.1
20260502222513 53 330 2.0 3.0 0.00 0.00 0.00 46 1013.1
20260502222011 53 268 1.0 2.0 0.00 0.00 0.00 47 1013.1
20260502221511 53 329 3.0 5.0 0.00 0.00 0.00 46 1013.0
20260502221012 53 346 3.0 6.0 0.00 0.00 0.00 46 1013.0
20260502220511 53 7 4.0 7.0 0.00 0.00 0.00 45 1013.0
20260502220012 54 20 0.0 2.0 0.00 0.00 0.00 47 1013.0
20260502215512 53 259 0.0 2.0 0.00 0.00 0.00 46 1013.0
20260502215011 53 342 2.0 3.0 0.00 0.00 0.00 44 1013.0
20260502214511 53 310 2.0 4.0 0.00 0.00 0.00 46 1013.0
20260502214012 53 285 2.0 5.0 0.00 0.00 0.00 45 1013.0
20260502213512 54 279 3.0 5.0 0.00 0.00 0.00 45 1012.9
20260502213012 54 340 2.0 4.0 0.00 0.00 0.00 43 1013.0
20260502212511 54 26 1.0 4.0 0.00 0.00 0.00 44 1013.0